Location: Johnson City
(36.3130°N, 82.3540°W)
Time: 15:48:55
(UTC-04:00)

ISS - Visible Passes

Search period start: 22 May 2018 00:00
Search period end: 01 June 2018 00:00
Orbit: 402 x 407 km, 51.6° (Epoch: 23 May)

Date Brightness Start Highest point End Pass type
(mag) Time Alt. Az. Time Alt. Az. Time Alt. Az.
22 May -0.4 03:19:56 10° N 03:21:40 14° NNE 03:23:23 10° ENE visible
22 May -3.9 04:55:17 10° NW 04:58:33 88° SSW 05:01:48 10° SE visible
22 May -3.4 21:33:12 10° WSW 21:36:27 65° NW 21:39:42 10° NE visible
22 May -0.3 23:12:17 10° NW 23:13:28 11° NNW 23:14:39 10° N visible
23 May -2.7 04:03:13 10° NW 04:06:22 43° NE 04:09:30 10° ESE visible
23 May -2.1 05:40:39 10° W 05:42:34 15° SW 05:44:28 10° SSW visible
23 May -0.7 22:18:48 10° WNW 22:21:02 17° NNW 22:23:16 10° NNE visible
24 May -1.4 21:25:50 10° W 21:28:40 27° NNW 21:31:31 10° NNE visible
25 May -0.1 22:13:11 10° NNW 22:13:31 10° NNW 22:13:50 10° NNW visible
26 May -0.7 21:19:05 10° WNW 21:21:01 15° NNW 21:22:57 10° N visible
29 May -0.4 00:27:45 10° N 00:28:12 11° N 00:28:12 11° N visible
31 May -0.6 00:18:52 10° NNW 00:19:37 14° NNW 00:19:37 14° NNW visible
31 May -1.0 23:27:09 10° N 23:28:57 14° NNE 23:29:03 14° NNE visible
